Weather History for NW Arkansas Airport, AR

Change the Weather History Date:

Monday, October 31, 2011

  Actual Average Record
Temperature  
Mean Temperature 52 °F -  
Max Temperature 69 °F - - ()
Min Temperature 36 °F - - ()
Degree Days  
Heating Degree Days 13    
Growing Degree Days 2 (Base 50)    
Moisture  
Dew Point 35 °F    
Average Humidity 61    
Maximum Humidity 89    
Minimum Humidity 27    
Precipitation  
Precipitation 0.00 in - - ()
Sea Level Pressure  
Sea Level Pressure 30.14 in    
Wind  
Wind Speed 4 mph (SSW)    
Max Wind Speed 14 mph    
Max Gust Speed 21 mph    
Visibility 10 miles    
Events      
T = Trace of Precipitation, MM = Missing Value Source: NWS Daily Summary

Daily Weather History Graph

Daily Weather History Graph

Search for Another Location

Airport:

Trip Planner

Search our weather history database for the weather conditions in past years. The results will help you decide how hot, cold, wet, or windy it might be!

Date:

Astronomy

Oct. 31, 2011 Rise Set
Actual Time 7:38 AM CDT 6:22 PM CDT
Civil Twilight 7:12 AM CDT 6:48 PM CDT
Nautical Twilight 6:42 AM CDT 7:19 PM CDT
Astronomical Twilight 6:12 AM CDT 7:49 PM CDT
Moon 12:42 PM CDT (10/31) 11:02 PM CDT (10/31)
Length of Visible Light 11h 36m
Length of Day
10h 43m
Waxing Crescent, 30% of the Moon is Illuminated
Oct 31
Waxing Crescent
Nov 2
First Quarter
Nov 10
Full
Nov 18
Last Quarter
Nov 25
New

Hourly Weather History & Observations

Time (CDT) Temp. Windchill Dew Point Humidity Pressure Visibility Wind Dir Wind Speed Gust Speed Precip Events Conditions
12:53 AM 39.9 °F - 30.9 °F 70% 30.17 in 10.0 mi Calm Calm - N/A   Clear
1:53 AM 36.0 °F - 32.0 °F 86% 30.17 in 10.0 mi Calm Calm - N/A   Clear
2:53 AM 37.9 °F 35.5 °F 35.1 °F 89% 30.17 in 10.0 mi SSW 3.5 mph - N/A   Clear
3:53 AM 37.0 °F - 33.1 °F 86% 30.16 in 10.0 mi Calm Calm - N/A   Clear
4:53 AM 37.9 °F 32.7 °F 34.0 °F 86% 30.15 in 10.0 mi SW 6.9 mph - N/A   Clear
5:53 AM 36.0 °F - 33.1 °F 89% 30.16 in 10.0 mi Calm Calm - N/A   Clear
6:53 AM 36.0 °F - 33.1 °F 89% 30.17 in 10.0 mi Calm Calm - N/A   Clear
7:53 AM 36.0 °F - 33.1 °F 89% 30.17 in 10.0 mi Calm Calm - N/A   Clear
8:53 AM 41.0 °F 39.0 °F 35.1 °F 79% 30.19 in 10.0 mi South 3.5 mph - N/A   Clear
9:53 AM 48.9 °F - 35.1 °F 59% 30.19 in 10.0 mi South 4.6 mph - N/A   Clear
10:53 AM 57.0 °F - 34.0 °F 42% 30.19 in 10.0 mi SSW 6.9 mph - N/A   Clear
11:53 AM 62.1 °F - 34.0 °F 35% 30.19 in 10.0 mi SSW 10.4 mph - N/A   Clear
12:53 PM 64.9 °F - 32.0 °F 29% 30.16 in 10.0 mi SW 11.5 mph 20.7 mph N/A   Clear
1:53 PM 66.9 °F - 33.1 °F 28% 30.13 in 10.0 mi South 13.8 mph 18.4 mph N/A   Clear
2:53 PM 68.0 °F - 34.0 °F 28% 30.11 in 10.0 mi SSW 10.4 mph - N/A   Clear
3:53 PM 68.0 °F - 33.1 °F 27% 30.10 in 10.0 mi SSW 9.2 mph - N/A   Clear
4:53 PM 66.9 °F - 34.0 °F 30% 30.09 in 10.0 mi SSW 11.5 mph - N/A   Clear
5:53 PM 64.0 °F - 37.0 °F 37% 30.09 in 10.0 mi SSW 8.1 mph - N/A   Clear
6:53 PM 57.0 °F - 39.0 °F 51% 30.09 in 10.0 mi South 5.8 mph - N/A   Clear
7:53 PM 52.0 °F - 39.9 °F 63% 30.11 in 10.0 mi South 4.6 mph - N/A   Clear
9:53 PM 51.1 °F - 39.9 °F 66% 30.10 in 10.0 mi South 3.5 mph - N/A   Clear
10:53 PM 48.0 °F - 39.9 °F 74% 30.10 in 10.0 mi South 5.8 mph - N/A   Clear
11:53 PM 50.0 °F - 39.9 °F 68% 30.09 in 10.0 mi SSW 4.6 mph - N/A   Clear